Overview Statistics Trail Chart Weather Telemetry Raw packets
 

This is the latest recevied weather packets stored in our database for station/object KD7AWQ. If no packets are shown the sender has not sent any weather packets the latest 10 day(s).

<< 79 80 81 82 83 84 85 >>
Time Temp. Humidity Pressure Rain* Wind** Luminosity Snow
1787859697 36.67° C 18% 1188.9 hPa 0 mm - 1023 W/m² -
1787859391 36.11° C 18% 1189.1 hPa 0 mm - 1025 W/m² -
1787859087 35.56° C 19% 1189.5 hPa 0 mm - 1024 W/m² -
1787858783 37.22° C 17% 1189.6 hPa 0 mm - 1024 W/m² -
1787858479 36.11° C 18% 1189.3 hPa 0 mm - 1023 W/m² -
1787858178 36.11° C 18% 1189.6 hPa 0 mm - 1021 W/m² -
1787857873 35.56° C 18% 1189.5 hPa 0 mm - 1018 W/m² -
1787857569 35.56° C 19% 1189.6 hPa 0 mm - 1016 W/m² -
1787857263 35.56° C 19% 1189.7 hPa 0 mm - 1012 W/m² -
1787856962 35° C 19% 1189.8 hPa 0 mm - 1010 W/m² -
1787856657 35.56° C 19% 1190 hPa 0 mm - 1006 W/m² -
1787856352 35.56° C 18% 1190.1 hPa 0 mm - 1000 W/m² -
1787856047 35° C 19% 1190.1 hPa 0 mm - 996 W/m² -
1787855747 35° C 19% 1190.4 hPa 0 mm - 992 W/m² -
1787855442 34.44° C 20% 1190.4 hPa 0 mm - 987 W/m² -
1787855137 34.44° C 20% 1190.5 hPa 0 mm - 981 W/m² -
1787854833 35° C 19% 1190.1 hPa 0 mm - 976 W/m² -
1787854532 34.44° C 20% 1190.6 hPa 0 mm - 949 W/m² -
1787854227 34.44° C 19% 1190.7 hPa 0 mm - 919 W/m² -
1787853927 34.44° C 19% 1190.6 hPa 0 mm - 963 W/m² -
1787853621 34.44° C 20% 1190.7 hPa 0 mm - 922 W/m² -
1787853320 35° C 19% 1190.6 hPa 0 mm - 935 W/m² -
1787853015 34.44° C 20% 1190.6 hPa 0 mm - 921 W/m² -
1787852709 33.89° C 20% 1190.6 hPa 0 mm - 908 W/m² -
1787852409 33.89° C 20% 1190.7 hPa 0 mm - 896 W/m² -

* Rain latest hour (hover to see other rain measurements)
** Current wind speed in m/s (hover to see current wind gust speed)